When you browse on this site, cookies collect data to enhance your experience and personalize the content and advertising you see.
Visit our Privacy Policy to learn more. By continuing to use the site, you agree to this use of cookies and data.
  • In Latvia
  • List of Countries
  • For 7 days
  • Water Temperature
  • Weather Map
  • Weather Widgets
  • user-avatar
    Login

    Hourly Weather Prutz

    Today, 11 December, Wednesday

    Time Temperature Precipitation Wind Pressure Humidity
    00:00 -7°C° 0 mm 2 mps 632 mmHg 30%
    01:00 -6°C° 0 mm 2 mps 632 mmHg 25%
    02:00 -5°C° 0 mm 2 mps 632 mmHg 25%
    03:00 -5°C° 0 mm 2 mps 631 mmHg 25%
    04:00 -5°C° 0 mm 2 mps 630 mmHg 25%
    05:00 -4°C° 0 mm 2 mps 630 mmHg 25%
    06:00 -4°C° 0 mm 2 mps 630 mmHg 26%
    07:00 -4°C° 0 mm 2 mps 630 mmHg 25%
    08:00 -3°C° 0 mm 2 mps 630 mmHg 32%
    09:00 -1°C° 0 mm 2 mps 630 mmHg 38%
    10:00 +1°C° 0 mm 2 mps 629 mmHg 44%
    11:00 +3°C° 0 mm 1 mps 629 mmHg 51%
    12:00 +4°C° 0 mm 1 mps 629 mmHg 57%
    13:00 +5°C° 0 mm 1 mps 629 mmHg 62%
    14:00 +4°C° 0 mm 1 mps 628 mmHg 58%
    15:00 +2°C° 0 mm 1 mps 627 mmHg 54%
    16:00 +1°C° 0 mm 1 mps 626 mmHg 50%
    17:00 0°C° 0 mm 1 mps 625 mmHg 50%
    18:00 -1°C° 0 mm 1 mps 625 mmHg 50%
    19:00 -1°C° 0 mm 1 mps 625 mmHg 50%
    20:00 -2°C° 0 mm 1 mps 625 mmHg 55%
    21:00 -2°C° 0 mm 1 mps 624 mmHg 61%
    22:00 -2°C° 0 mm 1 mps 624 mmHg 66%
    23:00 -3°C° 0.1 mm 0 mps 624 mmHg 69%

    Tomorrow, 12 December, Thursday

    Time Temperature Precipitation Wind Pressure Humidity
    00:00 -4°C° 0.1 mm 0 mps 624 mmHg 73%
    01:00 -4°C° 0.1 mm 0 mps 623 mmHg 76%
    02:00 -3°C° 0.1 mm 1 mps 623 mmHg 77%
    03:00 -4°C° 0.1 mm 1 mps 622 mmHg 78%
    04:00 -4°C° 0.1 mm 1 mps 622 mmHg 79%
    05:00 -4°C° 0.4 mm 1 mps 622 mmHg 84%
    06:00 -4°C° 0.4 mm 1 mps 622 mmHg 88%
    07:00 -4°C° 0.4 mm 1 mps 622 mmHg 93%
    08:00 -4°C° 0.4 mm 1 mps 622 mmHg 93%
    09:00 -3°C° 0.4 mm 1 mps 622 mmHg 92%
    10:00 -3°C° 0.4 mm 1 mps 622 mmHg 92%
    11:00 -2°C° 0.2 mm 1 mps 622 mmHg 91%
    12:00 -2°C° 0.2 mm 1 mps 622 mmHg 90%
    13:00 -4°C° 0.2 mm 2 mps 622 mmHg 89%
    14:00 -3°C° 0.2 mm 1 mps 622 mmHg 91%
    15:00 -4°C° 0.2 mm 1 mps 621 mmHg 93%
    16:00 -6°C° 0.2 mm 1 mps 620 mmHg 94%
    17:00 -7°C° 0 mm 1 mps 620 mmHg 93%
    18:00 -8°C° 0 mm 1 mps 619 mmHg 92%
    19:00 -9°C° 0 mm 1 mps 619 mmHg 91%
    20:00 -10°C° 0 mm 2 mps 618 mmHg 88%
    21:00 -10°C° 0 mm 2 mps 617 mmHg 85%
    22:00 -12°C° 0 mm 3 mps 617 mmHg 82%
    23:00 -12°C° 0 mm 3 mps 616 mmHg 81%

    Day after tomorrow, 13 December, Friday

    Time Temperature Precipitation Wind Pressure Humidity
    00:00 -12°C° 0 mm 3 mps 615 mmHg 79%
    01:00 -12°C° 0 mm 4 mps 615 mmHg 77%
    02:00 -12°C° 0 mm 4 mps 614 mmHg 78%
    03:00 -11°C° 0 mm 4 mps 614 mmHg 79%
    04:00 -10°C° 0 mm 4 mps 613 mmHg 80%
    05:00 -10°C° 0 mm 4 mps 613 mmHg 81%
    06:00 -10°C° 0 mm 4 mps 612 mmHg 81%
    07:00 -11°C° 0 mm 5 mps 612 mmHg 82%
    08:00 -9°C° 0.1 mm 4 mps 612 mmHg 82%
    09:00 -9°C° 0.1 mm 4 mps 612 mmHg 82%
    10:00 -8°C° 0.1 mm 4 mps 612 mmHg 82%
    11:00 -7°C° 0.8 mm 3 mps 612 mmHg 85%
    12:00 -5°C° 0.8 mm 2 mps 612 mmHg 88%
    13:00 -3°C° 0.8 mm 1 mps 612 mmHg 90%
    14:00 -3°C° 0.3 mm 1 mps 612 mmHg 91%
    15:00 -3°C° 0.3 mm 1 mps 612 mmHg 92%
    16:00 -3°C° 0.3 mm 1 mps 612 mmHg 93%
    17:00 -4°C° 0.1 mm 1 mps 612 mmHg 91%
    18:00 -6°C° 0.1 mm 1 mps 613 mmHg 89%
    19:00 -7°C° 0.1 mm 1 mps 613 mmHg 88%
    20:00 -7°C° 0.3 mm 1 mps 614 mmHg 88%
    21:00 -8°C° 0.3 mm 2 mps 614 mmHg 89%
    22:00 -7°C° 0.3 mm 2 mps 615 mmHg 89%
    23:00 -8°C° 0.1 mm 2 mps 616 mmHg 90%

    14 December, Saturday

    Time Temperature Precipitation Wind Pressure Humidity
    00:00 -8°C° 0.1 mm 2 mps 616 mmHg 91%
    01:00 -9°C° 0.1 mm 2 mps 617 mmHg 92%
    02:00 -9°C° 0 mm 2 mps 617 mmHg 90%
    03:00 -10°C° 0 mm 2 mps 617 mmHg 88%
    04:00 -10°C° 0 mm 2 mps 618 mmHg 86%
    05:00 -10°C° 0 mm 3 mps 618 mmHg 81%
    06:00 -9°C° 0 mm 3 mps 619 mmHg 75%
    07:00 -8°C° 0 mm 3 mps 620 mmHg 69%
    08:00 -7°C° 0.2 mm 3 mps 621 mmHg 75%
    09:00 -5°C° 0.2 mm 3 mps 621 mmHg 81%
    10:00 -4°C° 0.2 mm 3 mps 622 mmHg 87%
    11:00 -2°C° 0.2 mm 2 mps 623 mmHg 86%
    12:00 +1°C° 0.2 mm 2 mps 623 mmHg 86%
    13:00 +2°C° 0.2 mm 2 mps 624 mmHg 86%
    14:00 +2°C° 0.3 mm 2 mps 624 mmHg 88%
    15:00 +1°C° 0.3 mm 2 mps 624 mmHg 90%
    16:00 +1°C° 0.3 mm 2 mps 624 mmHg 92%
    17:00 +1°C° 0.2 mm 2 mps 625 mmHg 88%
    18:00 -1°C° 0.2 mm 2 mps 625 mmHg 84%
    19:00 -1°C° 0.2 mm 2 mps 625 mmHg 80%
    20:00 -1°C° 0 mm 2 mps 625 mmHg 78%
    21:00 -2°C° 0 mm 3 mps 626 mmHg 75%
    22:00 -2°C° 0 mm 3 mps 626 mmHg 72%
    23:00 -2°C° 0 mm 3 mps 626 mmHg 72%

    15 December, Sunday

    Time Temperature Precipitation Wind Pressure Humidity
    00:00 -2°C° 0 mm 3 mps 626 mmHg 71%
    01:00 -4°C° 0 mm 3 mps 626 mmHg 70%
    02:00 -4°C° 0 mm 3 mps 626 mmHg 71%
    03:00 -4°C° 0 mm 3 mps 626 mmHg 71%
    04:00 -4°C° 0 mm 3 mps 626 mmHg 71%
    05:00 -4°C° 0 mm 3 mps 626 mmHg 72%
    06:00 -4°C° 0 mm 3 mps 626 mmHg 73%
    07:00 -4°C° 0 mm 3 mps 626 mmHg 74%
    08:00 -2°C° 0 mm 3 mps 627 mmHg 75%
    09:00 -1°C° 0 mm 2 mps 628 mmHg 75%
    10:00 +1°C° 0 mm 2 mps 628 mmHg 75%
    11:00 +2°C° 0 mm 2 mps 629 mmHg 79%
    12:00 +3°C° 0 mm 2 mps 629 mmHg 83%
    13:00 +4°C° 0 mm 2 mps 629 mmHg 86%
    14:00 +4°C° 0 mm 1 mps 629 mmHg 85%
    15:00 +3°C° 0 mm 1 mps 629 mmHg 83%
    16:00 +2°C° 0 mm 1 mps 629 mmHg 81%
    17:00 +1°C° 0 mm 1 mps 629 mmHg 80%
    18:00 0°C° 0 mm 1 mps 630 mmHg 79%
    19:00 -1°C° 0 mm 1 mps 630 mmHg 78%
    20:00 -1°C° 0 mm 1 mps 630 mmHg 77%
    21:00 -1°C° 0 mm 1 mps 630 mmHg 76%
    22:00 -3°C° 0 mm 2 mps 631 mmHg 75%
    23:00 -4°C° 0 mm 2 mps 631 mmHg 75%

    16 December, Monday

    Time Temperature Precipitation Wind Pressure Humidity
    00:00 -4°C° 0 mm 2 mps 631 mmHg 76%
    01:00 -4°C° 0 mm 2 mps 631 mmHg 76%
    02:00 -4°C° 0 mm 2 mps 631 mmHg 78%
    03:00 -5°C° 0 mm 3 mps 631 mmHg 79%
    04:00 -5°C° 0 mm 3 mps 630 mmHg 80%
    05:00 -5°C° 0 mm 3 mps 630 mmHg 81%
    06:00 -4°C° 0 mm 3 mps 630 mmHg 82%
    07:00 -4°C° 0 mm 4 mps 630 mmHg 82%
    08:00 -3°C° 0 mm 4 mps 631 mmHg 83%
    09:00 -2°C° 0 mm 4 mps 631 mmHg 84%
    10:00 -1°C° 0 mm 4 mps 631 mmHg 84%
    11:00 -1°C° 0 mm 4 mps 631 mmHg 86%
    12:00 0°C° 0 mm 4 mps 631 mmHg 87%
    13:00 +1°C° 0 mm 4 mps 631 mmHg 88%
    14:00 +1°C° 0 mm 4 mps 631 mmHg 88%
    15:00 0°C° 0 mm 4 mps 631 mmHg 87%
    16:00 0°C° 0 mm 4 mps 631 mmHg 86%
    17:00 -1°C° 0 mm 4 mps 631 mmHg 86%
    18:00 -1°C° 0 mm 4 mps 631 mmHg 86%
    19:00 -1°C° 0 mm 4 mps 630 mmHg 86%
    20:00 -2°C° 0 mm 4 mps 630 mmHg 86%
    21:00 -2°C° 0 mm 4 mps 630 mmHg 86%
    22:00 -2°C° 0 mm 5 mps 630 mmHg 86%
    23:00 -2°C° 0 mm 4 mps 630 mmHg 86%
    Show more